Terug naar catalogus

MIDAS 4

ActiefMilitairPO
NORAD 192·PAYLOAD·🇺🇸 United States

Gelanceerd Oct 21, 1961 vanaf Vandenberg Space Force Base

Loading…

Volgende Passages (komende 24 uur)

TLE

VersSource: Space-Track

Epoch: Sep 14, 2026, 22:28 UTC

1 00192U 61028A   26257.93626875 -.00000025  00000-0 -98463-2 0  9998
2 00192  95.8487 242.4944 0134265 239.7061 119.0448  8.67767951 55949

Volg MIDAS 4 in realtime met AllMySat

Download on the App Store